Location: Alafon
(8.4500°N, 4.2333°E)
Time: 17:36:58
(UTC+00:00)

A-11 Canister half - Pass Details

Date: 09 August 2021
Orbit: 1515 x 1685 km, 47.2° (Epoch: 19 September)

Event Time Altitude Azimuth Distance (km) Brightness Sun altitude
Rises 00:41:44 0° 293° (WNW) 4,931 - -62.4°
Reaches altitude 10° 00:45:50 10° 279° (W) 3,936 - -61.9°
Maximum altitude 00:53:10 23° 232° (SW) 3,014 - -60.9°
Drops below altitude 10° 01:00:26 10° 184° (S) 3,870 - -59.9°
Sets 01:04:30 0° 170° (S) 4,829 - -59.3°
